Location: Bretagne
(43.8474°N, 0.4650°W)
Time: 19:19:16
(UTC+00:00)

Okean 3 - Pass Details

Date: 15 January 2026
Orbit: 541 x 564 km, 82.5° (Epoch: 13 February)

Event Time Altitude Azimuth Distance (km) Brightness Sun altitude
Rises 17:52:42 0° 160° (SSE) 2,738 6.9 -11.2°
Reaches altitude 10° 17:55:05 10° 149° (SSE) 1,844 5.9 -11.6°
Maximum altitude 17:58:33 28° 90° (E) 1,072 4.2 -12.2°
Enters shadow 18:01:17 14° 38° (NE) 1,597 5.2 -12.6°
